| time (UTC) | temp F | wind direction | speed MPH | gust MPH | rain 1hr in | rain 24hr in | rain mn in | humidity % | barometer mb |
| 20260905004535 | 69 | 346 | 1.0 | 4.0 | 0.00 | 0.01 | 0.01 | 79 | 1012.6 |
| 20260905003034 | 70 | 23 | 1.0 | 2.0 | 0.00 | 0.01 | 0.01 | 79 | 1012.5 |
| 20260905001532 | 70 | 18 | 1.0 | 3.0 | 0.00 | 0.01 | 0.01 | 79 | 1012.3 |
| 20260905000031 | 70 | 2 | 1.0 | 5.0 | 0.00 | 0.01 | 0.01 | 79 | 1012.1 |
| 20260904234530 | 71 | 293 | 1.0 | 7.0 | 0.00 | 0.01 | 0.01 | 78 | 1012.1 |
| 20260904233030 | 71 | 356 | 0.0 | 4.0 | 0.00 | 0.01 | 0.01 | 78 | 1012.1 |
| 20260904231535 | 72 | 359 | 2.0 | 5.0 | 0.00 | 0.01 | 0.01 | 77 | 1011.9 |
| 20260904230030 | 72 | 5 | 1.0 | 4.0 | 0.00 | 0.01 | 0.01 | 77 | 1012.1 |
| 20260904224529 | 73 | 323 | 1.0 | 5.0 | 0.00 | 0.01 | 0.01 | 77 | 1012.1 |
| 20260904223030 | 73 | 333 | 2.0 | 5.0 | 0.00 | 0.01 | 0.01 | 75 | 1012.1 |
| 20260904221528 | 74 | 323 | 1.0 | 4.0 | 0.00 | 0.01 | 0.01 | 75 | 1012.4 |
| 20260904220027 | 75 | 338 | 1.0 | 3.0 | 0.00 | 0.01 | 0.01 | 75 | 1012.3 |
| 20260904214539 | 75 | 334 | 0.0 | 5.0 | 0.00 | 0.01 | 0.01 | 74 | 1012.1 |
| 20260904213033 | 75 | 6 | 1.0 | 5.0 | 0.00 | 0.01 | 0.01 | 74 | 1012.0 |
| 20260904211526 | 76 | 293 | 1.0 | 4.0 | 0.00 | 0.01 | 0.01 | 74 | 1011.7 |
| 20260904210029 | 76 | 328 | 2.0 | 7.0 | 0.00 | 0.01 | 0.01 | 72 | 1011.7 |
| 20260904204526 | 75 | 326 | 3.0 | 6.0 | 0.00 | 0.01 | 0.01 | 73 | 1012.0 |
| 20260904203023 | 75 | 309 | 2.0 | 7.0 | 0.00 | 0.01 | 0.01 | 73 | 1012.3 |
| 20260904201522 | 76 | 21 | 2.0 | 9.0 | 0.00 | 0.01 | 0.01 | 72 | 1012.3 |
| 20260904200022 | 76 | 238 | 3.0 | 7.0 | 0.00 | 0.01 | 0.01 | 71 | 1012.5 |
| 20260904194521 | 75 | 313 | 2.0 | 8.0 | 0.00 | 0.01 | 0.01 | 73 | 1012.5 |
| 20260904193020 | 75 | 337 | 2.0 | 7.0 | 0.00 | 0.01 | 0.01 | 73 | 1012.5 |
| 20260904191519 | 76 | 314 | 2.0 | 7.0 | 0.00 | 0.01 | 0.01 | 74 | 1012.7 |
| 20260904190027 | 76 | 356 | 3.0 | 6.0 | 0.00 | 0.01 | 0.01 | 73 | 1012.7 |
| 20260904184518 | 76 | 335 | 1.0 | 6.0 | 0.00 | 0.01 | 0.01 | 72 | 1013.0 |
| 20260904183017 | 76 | 304 | 3.0 | 10.0 | 0.00 | 0.01 | 0.01 | 72 | 1013.0 |
| 20260904181516 | 75 | 317 | 2.0 | 12.0 | 0.00 | 0.01 | 0.01 | 73 | 1013.0 |
| 20260904180014 | 75 | 314 | 3.0 | 9.0 | 0.00 | 0.01 | 0.01 | 72 | 1013.0 |
| 20260904174523 | 75 | 304 | 3.0 | 11.0 | 0.00 | 0.01 | 0.01 | 74 | 1012.9 |
| 20260904173012 | 75 | 323 | 3.0 | 11.0 | 0.00 | 0.01 | 0.01 | 75 | 1012.9 |
| 20260904171518 | 75 | 299 | 4.0 | 11.0 | 0.00 | 0.01 | 0.01 | 72 | 1012.8 |
| 20260904170009 | 75 | 293 | 6.0 | 11.0 | 0.00 | 0.01 | 0.01 | 72 | 1012.9 |
| 20260904164508 | 75 | 1 | 5.0 | 13.0 | 0.00 | 0.01 | 0.01 | 73 | 1013.2 |
| 20260904163006 | 74 | 348 | 5.0 | 11.0 | 0.00 | 0.01 | 0.01 | 75 | 1013.2 |
| 20260904161504 | 74 | 327 | 4.0 | 12.0 | 0.00 | 0.01 | 0.01 | 75 | 1013.1 |
| 20260904160003 | 74 | 326 | 4.0 | 10.0 | 0.00 | 0.01 | 0.01 | 77 | 1013.1 |
| 20260904154502 | 74 | 22 | 3.0 | 12.0 | 0.00 | 0.01 | 0.01 | 80 | 1013.2 |
| 20260904153100 | 74 | 37 | 4.0 | 11.0 | 0.00 | 0.01 | 0.01 | 80 | 1013.3 |
| 20260904153003 | 74 | 320 | 4.0 | 11.0 | 0.00 | 0.01 | 0.01 | 80 | 1013.3 |
| 20260904151610 | 74 | 34 | 3.0 | 13.0 | 0.00 | 0.01 | 0.01 | 81 | 1013.3 |
| 20260904150119 | 73 | 343 | 2.0 | 8.0 | 0.00 | 0.01 | 0.01 | 84 | 1013.4 |
| 20260904144555 | 73 | 40 | 2.0 | 6.0 | 0.00 | 0.01 | 0.01 | 87 | 1013.4 |
| 20260904143052 | 72 | 340 | 3.0 | 9.0 | 0.00 | 0.01 | 0.01 | 88 | 1013.4 |
| 20260904141554 | 72 | 11 | 3.0 | 9.0 | 0.00 | 0.01 | 0.01 | 89 | 1013.3 |
| 20260904140050 | 72 | 30 | 1.0 | 7.0 | 0.00 | 0.01 | 0.01 | 90 | 1013.2 |
| 20260904134556 | 71 | 28 | 3.0 | 11.0 | 0.00 | 0.01 | 0.01 | 92 | 1013.2 |
| 20260904133048 | 71 | 320 | 1.0 | 6.0 | 0.00 | 0.01 | 0.01 | 94 | 1013.3 |
| 20260904131547 | 70 | 17 | 3.0 | 7.0 | 0.00 | 0.01 | 0.01 | 96 | 1013.3 |
| 20260904130046 | 69 | 327 | 2.0 | 9.0 | 0.00 | 0.01 | 0.01 | 97 | 1013.3 |
| 20260904124547 | 69 | 323 | 2.0 | 7.0 | 0.00 | 0.01 | 0.01 | 98 | 1013.3 |
| 20260904123045 | 68 | 349 | 1.0 | 6.0 | 0.00 | 0.01 | 0.01 | 99 | 1013.2 |
| 20260904121544 | 68 | 347 | 2.0 | 7.0 | 0.00 | 0.01 | 0.01 | 99 | 1013.4 |
| 20260904120043 | 68 | 321 | 1.0 | 9.0 | 0.00 | 0.01 | 0.01 | 100 | 1012.9 |
| 20260904114544 | 68 | 349 | 1.0 | 6.0 | 0.00 | 0.01 | 0.01 | 100 | 1013.0 |
| 20260904113041 | 68 | 23 | 1.0 | 5.0 | 0.00 | 0.01 | 0.01 | 100 | 1013.0 |
| 20260904111542 | 68 | 328 | 1.0 | 8.0 | 0.00 | 0.01 | 0.01 | 100 | 1012.8 |
| 20260904110041 | 68 | 29 | 2.0 | 8.0 | 0.00 | 0.01 | 0.01 | 100 | 1012.6 |
| 20260904104538 | 68 | 328 | 2.0 | 4.0 | 0.00 | 0.01 | 0.01 | 100 | 1012.7 |
| 20260904103036 | 69 | 41 | 2.0 | 5.0 | 0.00 | 0.01 | 0.01 | 100 | 1012.6 |
| 20260904101535 | 69 | 332 | 1.0 | 5.0 | 0.00 | 0.01 | 0.01 | 100 | 1012.5 |
| 20260904100038 | 69 | 79 | 1.0 | 4.0 | 0.00 | 0.01 | 0.01 | 100 | 1012.4 |
| 20260904094542 | 69 | 326 | 2.0 | 7.0 | 0.00 | 0.01 | 0.01 | 100 | 1012.2 |
| 20260904093033 | 69 | 11 | 1.0 | 3.0 | 0.00 | 0.01 | 0.01 | 100 | 1012.1 |
| 20260904091533 | 69 | 27 | 1.0 | 4.0 | 0.00 | 0.01 | 0.01 | 100 | 1012.0 |
| 20260904090031 | 69 | 347 | 1.0 | 5.0 | 0.00 | 0.01 | 0.01 | 99 | 1011.9 |
| 20260904084529 | 69 | 352 | 1.0 | 4.0 | 0.00 | 0.02 | 0.01 | 99 | 1012.0 |
| 20260904083036 | 70 | 359 | 1.0 | 4.0 | 0.00 | 0.02 | 0.01 | 99 | 1012.0 |
| 20260904081527 | 70 | 360 | 0.0 | 1.0 | 0.00 | 0.02 | 0.01 | 99 | 1012.0 |
| 20260904080026 | 70 | 351 | 0.0 | 1.0 | 0.00 | 0.02 | 0.01 | 99 | 1011.8 |
| 20260904074525 | 70 | 349 | 0.0 | 1.0 | 0.00 | 0.04 | 0.01 | 99 | 1011.5 |
| 20260904073026 | 71 | 347 | 0.0 | 2.0 | 0.00 | 0.04 | 0.01 | 99 | 1011.7 |
| 20260904071522 | 71 | 314 | 1.0 | 4.0 | 0.00 | 0.04 | 0.01 | 98 | 1011.7 |
| 20260904070021 | 71 | 331 | 2.0 | 5.0 | 0.00 | 0.04 | 0.01 | 98 | 1011.7 |
| 20260904064519 | 71 | 39 | 0.0 | 2.0 | 0.00 | 0.07 | 0.01 | 98 | 1011.8 |
| 20260904063023 | 71 | 356 | 0.0 | 0.0 | 0.01 | 0.07 | 0.01 | 98 | 1011.9 |
| 20260904061517 | 71 | 356 | 0.0 | 0.0 | 0.01 | 0.07 | 0.01 | 98 | 1012.3 |
| 20260904060013 | 71 | 356 | 0.0 | 0.0 | 0.01 | 0.07 | 0.01 | 97 | 1012.6 |
| 20260904054511 | 72 | 356 | 0.0 | 3.0 | 0.01 | 0.10 | 0.01 | 97 | 1012.6 |
| 20260904053011 | 72 | 4 | 0.0 | 3.0 | 0.00 | 0.09 | 0.00 | 97 | 1013.0 |
| 20260904051508 | 72 | 47 | 0.0 | 1.0 | 0.00 | 0.09 | 0.00 | 96 | 1013.0 |
| 20260904050006 | 72 | 18 | 0.0 | 2.0 | 0.00 | 0.09 | 0.00 | 95 | 1012.9 |
| 20260904044505 | 73 | 24 | 0.0 | 1.0 | 0.00 | 0.56 | 0.00 | 94 | 1012.7 |
| 20260904043103 | 73 | 314 | 0.0 | 0.0 | 0.00 | 0.56 | 0.00 | 94 | 1012.9 |
| 20260904041557 | 73 | 305 | 0.0 | 0.0 | 0.00 | 0.56 | 0.00 | 93 | 1013.0 |
| 20260904034553 | 73 | 307 | 0.0 | 1.0 | 0.00 | 0.59 | 0.56 | 93 | 1013.5 |
| 20260904033049 | 73 | 24 | 0.0 | 0.0 | 0.00 | 0.59 | 0.56 | 92 | 1013.6 |
| 20260904031551 | 73 | 24 | 0.0 | 0.0 | 0.00 | 0.59 | 0.56 | 92 | 1013.4 |
| 20260904030052 | 73 | 23 | 0.0 | 0.0 | 0.00 | 0.59 | 0.56 | 93 | 1013.2 |
| 20260904024549 | 73 | 24 | 0.0 | 0.0 | 0.00 | 0.59 | 0.56 | 92 | 1013.4 |
| 20260904023056 | 73 | 23 | 0.0 | 0.0 | 0.00 | 0.59 | 0.56 | 92 | 1013.9 |
| 20260904021546 | 74 | 24 | 0.0 | 0.0 | 0.00 | 0.59 | 0.56 | 91 | 1014.0 |
| 20260904020046 | 74 | 25 | 0.0 | 1.0 | 0.00 | 0.59 | 0.56 | 92 | 1014.5 |
| 20260904014557 | 74 | 28 | 0.0 | 0.0 | 0.00 | 0.59 | 0.56 | 91 | 1014.4 |
| 20260904013047 | 74 | 27 | 0.0 | 1.0 | 0.00 | 0.59 | 0.56 | 91 | 1014.4 |
| 20260904011543 | 74 | 23 | 0.0 | 1.0 | 0.00 | 0.59 | 0.56 | 91 | 1014.6 |
| 20260904010049 | 74 | 56 | 0.0 | 0.0 | 0.00 | 0.59 | 0.56 | 91 | 1014.5 |